Location: Plum
(40.5000°N, 79.7500°W)
Time: 00:25:17
(UTC-05:00)

Daily predictions for brighter satellites

Satellite Brightness Start Highest point End
(mag) Time Altitude Azimuth Time Altitude Azimuth Time Altitude Azimuth
Lacrosse 5 4.4 03:28:18 17° ENE 03:28:18 17° ENE 03:29:35 10° NE
USA 234 4.3 03:36:06 10° ENE 03:41:54 36° SE 03:41:54 36° SE
ATLAS 5 CENTAUR R/B 4.0 03:46:24 22° NE 03:46:24 22° NE 03:48:18 10° NE
Cosmos 1943 Rocket 3.5 03:51:54 36° NE 03:51:54 36° NE 03:55:24 10° NNE
CZ-4C R/B 3.7 03:54:44 28° ESE 03:54:51 28° ESE 03:59:36 10° NE
CZ-4B R/B 3.9 03:58:49 10° NNE 04:03:30 53° ENE 04:03:30 53° ENE
ADEOS II 2.7 04:10:05 10° NNE 04:14:12 52° NE 04:14:12 52° NE
Okean O Rocket 4.1 04:19:06 10° N 04:19:45 14° N 04:19:45 14° N
Cosmos 2221 Rocket 4.4 04:38:26 30° SSE 04:40:24 52° E 04:44:50 10° NNE
PAYLOAD B 4.5 04:39:08 10° N 04:43:44 52° NW 04:43:44 52° NW
Meteor 1-26 Rocket 4.3 04:41:38 24° S 04:45:09 77° E 04:50:46 10° NNE
Nadezhda 2 Rocket 4.3 04:40:24 10° N 04:46:30 77° W 04:52:37 10° S
Okean 1-7 3.7 04:45:42 22° SSE 04:48:10 51° E 04:52:18 10° NNE
CZ-4B DEB 4.3 04:46:05 10° N 04:51:10 54° WNW 04:51:10 54° WNW
Cosmos 1656 Rocket 3.7 04:50:02 36° SSW 04:52:26 81° ESE 04:58:08 10° NNE
Cosmos 2219 3.9 04:48:29 10° NNW 04:54:04 54° ENE 04:59:34 10° SE
Cosmos 2369 Rocket 3.7 04:56:09 22° NNW 04:56:09 22° NNW 04:59:14 10° N
Meteor 1-31 Rocket 2.8 04:54:08 10° NNE 04:58:02 74° ESE 04:58:26 66° SSE
ATLAS CENTAUR R/B 3.8 04:59:20 40° W 05:01:13 46° SW 05:16:59 10° SSE
GEOS 3 Rocket 3.5 04:56:42 10° SSE 05:01:44 64° WSW 05:02:58 48° WNW
Cosmos 1417 Rocket 4.3 05:01:08 10° S 05:07:19 85° W 05:13:30 10° N
Cosmos 1782 Rocket 3.4 05:03:10 10° N 05:07:39 83° W 05:12:04 10° S
Cosmos 1745 Rocket 4.4 05:01:35 10° N 05:07:40 63° E 05:13:43 10° SSE
Lacrosse 5 2.6 05:07:32 35° NW 05:07:51 36° NW 05:12:31 10° NNE
Cosmos 1954 Rocket 3.9 05:06:16 10° NNW 05:11:33 68° WSW 05:16:49 10° S
Cosmos 1420 Rocket 3.9 05:13:54 15° SSW 05:18:14 84° WNW 05:23:27 10° NNE
Meteor 2-10 Rocket 3.5 05:17:38 31° SW 05:19:41 51° WNW 05:24:38 10° N
SKYMED 2 4.2 05:15:43 10° SSE 05:19:57 57° ENE 05:24:14 10° N
Okean-O 2.6 05:17:01 10° N 05:21:24 59° WNW 05:23:59 23° SW
ERS-2 4.1 05:20:53 10° NNW 05:21:59 17° NNW 05:21:59 17° NNW
NOAA 6 4.0 05:18:53 10° NNE 05:24:05 83° ESE 05:29:12 10° SSW
Tiangong 1 1.0 05:24:16 60° N 05:24:16 60° N 05:27:07 10° ENE
Feng Yun 1-1 Rocket 4.3 05:19:14 10° N 05:25:04 67° WNW 05:30:56 10° SSW
USA 234 3.3 05:18:47 10° NE 05:25:14 64° NW 05:29:16 24° WSW
ATLAS 5 CENTAUR R/B 3.3 05:27:57 20° NW 05:28:30 20° NW 05:32:19 10° N
SJ-6F 4.3 05:26:06 10° N 05:30:14 69° WNW 05:34:18 10° SSW
Cosmos 1943 Rocket 3.3 05:33:27 22° WNW 05:34:04 23° NW 05:38:26 10° N
Okean 2 Rocket 3.1 05:31:54 10° NNW 05:36:12 53° W 05:40:27 10° S
Radarsat Rocket 4.3 05:31:00 10° NNE 05:38:15 86° ESE 05:44:35 10° SSW
Thor Agena Rocket 3.7 05:35:34 10° S 05:40:35 47° W 05:45:34 10° NNW
CZ-4C R/B 2.6 05:39:58 23° WSW 05:43:00 44° NW 05:48:44 10° NNE
Cosmos 1607 4.0 05:38:06 10° SSW 05:44:12 79° ESE 05:50:23 10° NE
CZ-4B R/B 4.5 05:40:27 10° NNW 05:44:27 20° WNW 05:45:24 20° WNW
Cosmos 1452 Rocket 4.3 05:42:34 22° WSW 05:44:51 31° WNW 05:49:31 10° N
Meteor 1-28 Rocket 3.3 05:41:11 10° SSE 05:44:53 78° ENE 05:48:39 10° N
ATLAS 3B R/B 3.0 05:40:08 10° SSW 05:47:45 83° ESE 05:55:06 10° NE
Delta 2 Rocket 4.5 05:44:49 18° WSW 05:48:04 46° S 05:53:11 10° E
Lacrosse 5 rocket 2.6 05:49:00 10° NNW 05:52:17 32° NE 05:55:33 10° ESE
Meteor 1-27 Rocket 4.3 05:47:45 10° S 05:53:27 65° E 05:59:17 10° NNE
Meteor 1-20 Rocket 4.3 05:48:20 10° NNW 05:53:53 55° W 05:59:18 10° S
ADEOS II 3.6 05:51:23 10° NNW 05:54:28 16° WNW 05:55:09 16° WNW
Cosmos 2151 Rocket 3.5 05:51:21 10° NNW 05:55:51 72° W 06:00:17 10° S
S3M 4.3 05:50:00 10° SSW 05:56:02 46° WNW 06:02:03 10° N
CSL-04 Rocket 4.3 05:51:09 10° NNE 05:56:30 62° ESE 06:01:53 10° S
Cosmos 1741 Rocket 4.1 05:52:02 10° NNW 05:57:10 57° WSW 06:02:18 10° S
Cosmos 1553 Rocket 4.4 05:57:00 10° SW 06:02:44 39° WNW 06:08:35 10° N
Meteor 2-11 Rocket 4.5 05:58:49 10° SSW 06:04:50 62° W 06:10:56 10° N
COSMO-SKYMED 1 3.0 06:03:59 10° SSW 06:08:03 40° W 06:12:09 10° NNW
Cosmos 1606 3.1 06:06:03 10° SSW 06:09:44 42° WNW 06:13:28 10° N
Cosmos 1782 3.5 06:06:39 10° SW 06:10:12 32° WNW 06:13:49 10° NNW
Cosmos 1602 3.8 06:06:50 10° N 06:10:48 88° E 06:14:45 10° S
CZ-2C R/B 3.4 06:08:19 10° NNE 06:13:09 52° E 06:18:05 10° S
Cosmos 2369 4.0 06:08:03 10° SSW 06:13:40 73° ESE 06:19:19 10° NNE
Cosmos 2297 Rocket 2.6 06:16:22 10° NNW 06:22:01 68° ENE 06:27:37 10° SSE
Meteor 2-6 Rocket 4.5 06:21:08 10° SSW 06:26:12 42° WNW 06:31:21 10° N
CSL-04 Debris 4.2 06:23:29 10° NNE 06:28:54 80° WNW 06:34:17 10° SSW
Cosmos 2278 3.7 06:24:29 10° SSW 06:30:08 79° WNW 06:35:49 10° NNE
BREEZE M DEB (TANK) 4.3 06:30:56 10° WNW 06:40:33 35° NNW 06:44:06 10° ENE
